Year,Month,Day,Hour,Minute,Value (Times are PST for temperature in C)
2018,08,20,00,00,15.00
2018,08,20,00,01,15.00
2018,08,20,00,02,15.00
2018,08,20,00,03,15.00
2018,08,20,00,04,15.00
2018,08,20,00,05,15.00
2018,08,20,00,06,14.90
2018,08,20,00,07,14.90
2018,08,20,00,08,14.90
2018,08,20,00,09,14.90
2018,08,20,00,10,14.90
2018,08,20,00,11,14.90
2018,08,20,00,12,14.90
2018,08,20,00,13,14.90
2018,08,20,00,14,14.90
2018,08,20,00,15,14.90
2018,08,20,00,16,14.90
2018,08,20,00,17,14.90
2018,08,20,00,18,14.80
2018,08,20,00,19,14.80
2018,08,20,00,20,14.80
2018,08,20,00,21,14.80
2018,08,20,00,22,14.80
2018,08,20,00,23,14.80
2018,08,20,00,24,14.80
2018,08,20,00,25,14.80
2018,08,20,00,26,14.80
2018,08,20,00,27,14.80
2018,08,20,00,28,14.80
2018,08,20,00,29,14.80
2018,08,20,00,30,14.70
2018,08,20,00,31,14.80
2018,08,20,00,32,14.70
2018,08,20,00,33,14.70
2018,08,20,00,34,14.70
2018,08,20,00,35,14.70
2018,08,20,00,36,14.70
2018,08,20,00,37,14.70
2018,08,20,00,38,14.70
2018,08,20,00,39,14.70
2018,08,20,00,40,14.70
2018,08,20,00,41,14.70
2018,08,20,00,42,14.70
2018,08,20,00,43,14.70
2018,08,20,00,44,14.70
2018,08,20,00,45,14.70
2018,08,20,00,46,14.70
2018,08,20,00,47,14.70
2018,08,20,00,48,14.70
2018,08,20,00,49,14.70
2018,08,20,00,50,14.70
2018,08,20,00,51,14.70
2018,08,20,00,52,14.70
2018,08,20,00,53,14.70
2018,08,20,00,54,14.70
2018,08,20,00,55,14.60
2018,08,20,00,56,14.70
2018,08,20,00,57,14.60
2018,08,20,00,58,14.60
2018,08,20,00,59,14.60
2018,08,20,01,00,14.60
2018,08,20,01,01,14.60
2018,08,20,01,02,14.60
2018,08,20,01,03,14.60
2018,08,20,01,04,14.60
2018,08,20,01,05,14.60
2018,08,20,01,06,14.60
2018,08,20,01,07,14.50
2018,08,20,01,08,14.50
2018,08,20,01,09,14.50
2018,08,20,01,10,14.50
2018,08,20,01,11,14.50
2018,08,20,01,12,14.50
2018,08,20,01,13,14.50
2018,08,20,01,14,14.50
2018,08,20,01,15,14.50
2018,08,20,01,16,14.40
2018,08,20,01,17,14.40
2018,08,20,01,18,14.40
2018,08,20,01,19,14.40
2018,08,20,01,20,14.40
2018,08,20,01,21,14.40
2018,08,20,01,22,14.40
2018,08,20,01,23,14.40
2018,08,20,01,24,14.40
2018,08,20,01,25,14.40
2018,08,20,01,26,14.40
2018,08,20,01,27,14.40
2018,08,20,01,28,14.40
2018,08,20,01,29,14.40
2018,08,20,01,30,14.40
2018,08,20,01,31,14.40
2018,08,20,01,32,14.40
2018,08,20,01,33,14.30
2018,08,20,01,34,14.30
2018,08,20,01,35,14.30
2018,08,20,01,36,14.30
2018,08,20,01,37,14.30
2018,08,20,01,38,14.30
2018,08,20,01,39,14.30
2018,08,20,01,40,14.30
2018,08,20,01,41,14.30
2018,08,20,01,42,14.30
2018,08,20,01,43,14.30
2018,08,20,01,44,14.20
2018,08,20,01,45,14.20
2018,08,20,01,46,14.20
2018,08,20,01,47,14.20
2018,08,20,01,48,14.20
2018,08,20,01,49,14.20
2018,08,20,01,50,14.20
2018,08,20,01,51,14.20
2018,08,20,01,52,14.20
2018,08,20,01,53,14.20
2018,08,20,01,54,14.20
2018,08,20,01,55,14.20
2018,08,20,01,56,14.20
2018,08,20,01,57,14.20
2018,08,20,01,58,14.20
2018,08,20,01,59,14.20
2018,08,20,02,00,14.20
2018,08,20,02,01,14.20
2018,08,20,02,02,14.20
2018,08,20,02,03,14.10
2018,08,20,02,04,14.10
2018,08,20,02,05,14.10
2018,08,20,02,06,14.10
2018,08,20,02,07,14.10
2018,08,20,02,08,14.10
2018,08,20,02,09,14.10
2018,08,20,02,10,14.10
2018,08,20,02,11,14.10
2018,08,20,02,12,14.10
2018,08,20,02,13,14.10
2018,08,20,02,14,14.10
2018,08,20,02,15,14.10
2018,08,20,02,16,14.00
2018,08,20,02,17,14.00
2018,08,20,02,18,14.00
2018,08,20,02,19,14.00
2018,08,20,02,20,14.00
2018,08,20,02,21,14.00
2018,08,20,02,22,13.90
2018,08,20,02,23,13.90
2018,08,20,02,24,13.90
2018,08,20,02,25,13.90
2018,08,20,02,26,13.90
2018,08,20,02,27,13.90
2018,08,20,02,28,13.90
2018,08,20,02,29,13.90
2018,08,20,02,30,13.90
2018,08,20,02,31,13.80
2018,08,20,02,32,13.80
2018,08,20,02,33,13.80
2018,08,20,02,34,13.80
2018,08,20,02,35,13.80
2018,08,20,02,36,13.80
2018,08,20,02,37,13.80
2018,08,20,02,38,13.80
2018,08,20,02,39,13.80
2018,08,20,02,40,13.80
2018,08,20,02,41,13.80
2018,08,20,02,42,13.70
2018,08,20,02,43,13.70
2018,08,20,02,44,13.70
2018,08,20,02,45,13.70
2018,08,20,02,46,13.70
2018,08,20,02,47,13.70
2018,08,20,02,48,13.70
2018,08,20,02,49,13.70
2018,08,20,02,50,13.70
2018,08,20,02,51,13.70
2018,08,20,02,52,13.60
2018,08,20,02,53,13.60
2018,08,20,02,54,13.60
2018,08,20,02,55,13.60
2018,08,20,02,56,13.60
2018,08,20,02,57,13.60
2018,08,20,02,58,13.60
2018,08,20,02,59,13.60
2018,08,20,03,00,13.60
2018,08,20,03,01,13.60
2018,08,20,03,02,13.60
2018,08,20,03,03,13.50
2018,08,20,03,04,13.50
2018,08,20,03,05,13.50
2018,08,20,03,06,13.50
2018,08,20,03,07,13.50
2018,08,20,03,08,13.50
2018,08,20,03,09,13.50
2018,08,20,03,10,13.50
2018,08,20,03,11,13.40
2018,08,20,03,12,13.40
2018,08,20,03,13,13.40
2018,08,20,03,14,13.40
2018,08,20,03,15,13.40
2018,08,20,03,16,13.40
2018,08,20,03,17,13.40
2018,08,20,03,18,13.40
2018,08,20,03,19,13.40
2018,08,20,03,20,13.40
2018,08,20,03,21,13.40
2018,08,20,03,22,13.40
2018,08,20,03,23,13.40
2018,08,20,03,24,13.40
2018,08,20,03,25,13.40
2018,08,20,03,26,13.40
2018,08,20,03,27,13.40
2018,08,20,03,28,13.40
2018,08,20,03,29,13.30
2018,08,20,03,30,13.30
2018,08,20,03,31,13.30
2018,08,20,03,32,13.30
2018,08,20,03,33,13.30
2018,08,20,03,34,13.30
2018,08,20,03,35,13.30
2018,08,20,03,36,13.30
2018,08,20,03,37,13.30
2018,08,20,03,38,13.30
2018,08,20,03,39,13.30
2018,08,20,03,40,13.30
2018,08,20,03,41,13.30
2018,08,20,03,42,13.20
2018,08,20,03,43,13.20
2018,08,20,03,44,13.20
2018,08,20,03,45,13.20
2018,08,20,03,46,13.20
2018,08,20,03,47,13.20
2018,08,20,03,48,13.20
2018,08,20,03,49,13.20
2018,08,20,03,50,13.20
2018,08,20,03,51,13.20
2018,08,20,03,52,13.20
2018,08,20,03,53,13.20
2018,08,20,03,54,13.20
2018,08,20,03,55,13.20
2018,08,20,03,56,13.20
2018,08,20,03,57,13.10
2018,08,20,03,58,13.10
2018,08,20,03,59,13.10
2018,08,20,04,00,13.10
2018,08,20,04,01,13.10
2018,08,20,04,02,13.10
2018,08,20,04,03,13.10
2018,08,20,04,04,13.10
2018,08,20,04,05,13.10
2018,08,20,04,06,13.10
2018,08,20,04,07,13.10
2018,08,20,04,08,13.10
2018,08,20,04,09,13.10
2018,08,20,04,10,13.10
2018,08,20,04,11,13.10
2018,08,20,04,12,13.10
2018,08,20,04,13,13.10
2018,08,20,04,14,13.00
2018,08,20,04,15,13.10
2018,08,20,04,16,13.00
2018,08,20,04,17,13.00
2018,08,20,04,18,13.00
2018,08,20,04,19,13.00
2018,08,20,04,20,13.00
2018,08,20,04,21,13.00
2018,08,20,04,22,13.00
2018,08,20,04,23,13.00
2018,08,20,04,24,13.00
2018,08,20,04,25,13.00
2018,08,20,04,26,13.00
2018,08,20,04,27,13.00
2018,08,20,04,28,13.00
2018,08,20,04,29,13.00
2018,08,20,04,30,13.00
2018,08,20,04,31,13.00
2018,08,20,04,32,12.90
2018,08,20,04,33,12.90
2018,08,20,04,34,12.90
2018,08,20,04,35,12.90
2018,08,20,04,36,12.90
2018,08,20,04,37,12.90
2018,08,20,04,38,12.90
2018,08,20,04,39,12.90
2018,08,20,04,40,12.90
2018,08,20,04,41,12.90
2018,08,20,04,42,12.90
2018,08,20,04,43,12.90
2018,08,20,04,44,12.90
2018,08,20,04,45,12.90
2018,08,20,04,46,12.80
2018,08,20,04,47,12.80
2018,08,20,04,48,12.80
2018,08,20,04,49,12.80
2018,08,20,04,50,12.80
2018,08,20,04,51,12.80
2018,08,20,04,52,12.80
2018,08,20,04,53,12.80
2018,08,20,04,54,12.80
2018,08,20,04,55,12.80
2018,08,20,04,56,12.80
2018,08,20,04,57,12.80
2018,08,20,04,58,12.80
2018,08,20,04,59,12.80
2018,08,20,05,00,12.80
2018,08,20,05,01,12.80
2018,08,20,05,02,12.80
2018,08,20,05,03,12.80
2018,08,20,05,04,12.80
2018,08,20,05,05,12.80
2018,08,20,05,06,12.80
2018,08,20,05,07,12.80
2018,08,20,05,08,12.80
2018,08,20,05,09,12.70
2018,08,20,05,10,12.70
2018,08,20,05,11,12.70
2018,08,20,05,12,12.70
2018,08,20,05,13,12.70
2018,08,20,05,14,12.70
2018,08,20,05,15,12.70
2018,08,20,05,16,12.70
2018,08,20,05,17,12.70
2018,08,20,05,18,12.70
2018,08,20,05,19,12.70
2018,08,20,05,20,12.70
2018,08,20,05,21,12.60
2018,08,20,05,22,12.60
2018,08,20,05,23,12.60
2018,08,20,05,24,12.60
2018,08,20,05,25,12.60
2018,08,20,05,26,12.60
2018,08,20,05,27,12.60
2018,08,20,05,28,12.60
2018,08,20,05,29,12.50
2018,08,20,05,30,12.50
2018,08,20,05,31,12.50
2018,08,20,05,32,12.50
2018,08,20,05,33,12.50
2018,08,20,05,34,12.50
2018,08,20,05,35,12.50
2018,08,20,05,36,12.50
2018,08,20,05,37,12.50
2018,08,20,05,38,12.50
2018,08,20,05,39,12.50
2018,08,20,05,40,12.50
2018,08,20,05,41,12.50
2018,08,20,05,42,12.40
2018,08,20,05,43,12.40
2018,08,20,05,44,12.40
2018,08,20,05,45,12.40
2018,08,20,05,46,12.40
2018,08,20,05,47,12.40
2018,08,20,05,48,12.40
2018,08,20,05,49,12.40
2018,08,20,05,50,12.40
2018,08,20,05,51,12.40
2018,08,20,05,52,12.40
2018,08,20,05,53,12.40
2018,08,20,05,54,12.40
2018,08,20,05,55,12.40
2018,08,20,05,56,12.40
2018,08,20,05,57,12.30
2018,08,20,05,58,12.30
2018,08,20,05,59,12.30
2018,08,20,06,00,12.30
2018,08,20,06,01,12.30
2018,08,20,06,02,12.30
2018,08,20,06,03,12.30
2018,08,20,06,04,12.30
2018,08,20,06,05,12.30
2018,08,20,06,06,12.30
2018,08,20,06,07,12.30
2018,08,20,06,08,12.30
2018,08,20,06,09,12.30
2018,08,20,06,10,12.30
2018,08,20,06,11,12.30
2018,08,20,06,12,12.20
2018,08,20,06,13,12.30
2018,08,20,06,14,12.20
2018,08,20,06,15,12.20
2018,08,20,06,16,12.20
2018,08,20,06,17,12.20
2018,08,20,06,18,12.20
2018,08,20,06,19,12.20
2018,08,20,06,20,12.20
2018,08,20,06,21,12.20
2018,08,20,06,22,12.20
2018,08,20,06,23,12.20
2018,08,20,06,24,12.20
2018,08,20,06,25,12.20
2018,08,20,06,26,12.20
2018,08,20,06,27,12.20
2018,08,20,06,28,12.20
2018,08,20,06,29,12.20
2018,08,20,06,30,12.20
2018,08,20,06,31,12.20
2018,08,20,06,32,12.20
2018,08,20,06,33,12.20
2018,08,20,06,34,12.20
2018,08,20,06,35,12.20
2018,08,20,06,36,12.20
2018,08,20,06,37,12.20
2018,08,20,06,38,12.20
2018,08,20,06,39,12.20
2018,08,20,06,40,12.20
2018,08,20,06,41,12.20
2018,08,20,06,42,12.20
2018,08,20,06,43,12.20
2018,08,20,06,44,12.20
2018,08,20,06,45,12.20
2018,08,20,06,46,12.20
2018,08,20,06,47,12.20
2018,08,20,06,48,12.20
2018,08,20,06,49,12.20
2018,08,20,06,50,12.20
2018,08,20,06,51,12.20
2018,08,20,06,52,12.20
2018,08,20,06,53,12.20
2018,08,20,06,54,12.20
2018,08,20,06,55,12.20
2018,08,20,06,56,12.20
2018,08,20,06,57,12.20
2018,08,20,06,58,12.20
2018,08,20,06,59,12.20
2018,08,20,07,00,12.20
2018,08,20,07,01,12.20
2018,08,20,07,02,12.20
2018,08,20,07,03,12.20
2018,08,20,07,04,12.20
2018,08,20,07,05,12.20
2018,08,20,07,06,12.20
2018,08,20,07,07,12.20
2018,08,20,07,08,12.20
2018,08,20,07,09,12.20
2018,08,20,07,10,12.20
2018,08,20,07,11,12.20
2018,08,20,07,12,12.20
2018,08,20,07,13,12.20
2018,08,20,07,14,12.20
2018,08,20,07,15,12.20
2018,08,20,07,16,12.20
2018,08,20,07,17,12.30
2018,08,20,07,18,12.30
2018,08,20,07,19,12.30
2018,08,20,07,20,12.30
2018,08,20,07,21,12.30
2018,08,20,07,22,12.30
2018,08,20,07,23,12.30
2018,08,20,07,24,12.30
2018,08,20,07,25,12.30
2018,08,20,07,26,12.30
2018,08,20,07,27,12.30
2018,08,20,07,28,12.30
2018,08,20,07,29,12.30
2018,08,20,07,30,12.40
2018,08,20,07,31,12.40
2018,08,20,07,32,12.40
2018,08,20,07,33,12.40
2018,08,20,07,34,12.40
2018,08,20,07,35,12.40
2018,08,20,07,36,12.40
2018,08,20,07,37,12.40
2018,08,20,07,38,12.50
2018,08,20,07,39,12.50
2018,08,20,07,40,12.50
2018,08,20,07,41,12.50
2018,08,20,07,42,12.60
2018,08,20,07,43,12.60
2018,08,20,07,44,12.60
2018,08,20,07,45,12.60
2018,08,20,07,46,12.60
2018,08,20,07,47,12.60
2018,08,20,07,48,12.70
2018,08,20,07,49,12.70
2018,08,20,07,50,12.70
2018,08,20,07,51,12.70
2018,08,20,07,52,12.80
2018,08,20,07,53,12.80
2018,08,20,07,54,12.80
2018,08,20,07,55,12.80
2018,08,20,07,56,12.80
2018,08,20,07,57,12.90
2018,08,20,07,58,12.90
2018,08,20,07,59,12.90
2018,08,20,08,00,12.90
2018,08,20,08,01,13.00
2018,08,20,08,02,13.00
2018,08,20,08,03,13.00
2018,08,20,08,04,13.10
2018,08,20,08,05,13.10
2018,08,20,08,06,13.10
2018,08,20,08,07,13.20
2018,08,20,08,08,13.20
2018,08,20,08,09,13.20
2018,08,20,08,10,13.30
2018,08,20,08,11,13.30
2018,08,20,08,12,13.30
2018,08,20,08,13,13.40
2018,08,20,08,14,13.40
2018,08,20,08,15,13.40
2018,08,20,08,16,13.50
2018,08,20,08,17,13.50
2018,08,20,08,18,13.60
2018,08,20,08,19,13.60
2018,08,20,08,20,13.70
2018,08,20,08,21,13.70
2018,08,20,08,22,13.80
2018,08,20,08,23,13.80
2018,08,20,08,24,13.90
2018,08,20,08,25,13.90
2018,08,20,08,26,14.00
2018,08,20,08,27,14.00
2018,08,20,08,28,14.10
2018,08,20,08,29,14.10
2018,08,20,08,30,14.20
2018,08,20,08,31,14.20
2018,08,20,08,32,14.20
2018,08,20,08,33,14.30
2018,08,20,08,34,14.30
2018,08,20,08,35,14.40
2018,08,20,08,36,14.40
2018,08,20,08,37,14.40
2018,08,20,08,38,14.50
2018,08,20,08,39,14.50
2018,08,20,08,40,14.60
2018,08,20,08,41,14.70
2018,08,20,08,42,14.70
2018,08,20,08,43,14.80
2018,08,20,08,44,14.80
2018,08,20,08,45,14.90
2018,08,20,08,46,14.90
2018,08,20,08,47,15.00
2018,08,20,08,48,15.10
2018,08,20,08,49,15.10
2018,08,20,08,50,15.20
2018,08,20,08,51,15.30
2018,08,20,08,52,15.30
2018,08,20,08,53,15.40
2018,08,20,08,54,15.50
2018,08,20,08,55,15.50
2018,08,20,08,56,15.60
2018,08,20,08,57,15.70
2018,08,20,08,58,15.70
2018,08,20,08,59,15.80
2018,08,20,09,00,15.80
2018,08,20,09,01,15.90
2018,08,20,09,02,16.00
2018,08,20,09,03,16.00
2018,08,20,09,04,16.10
2018,08,20,09,05,16.20
2018,08,20,09,06,16.20
2018,08,20,09,07,16.30
2018,08,20,09,08,16.30
2018,08,20,09,09,16.40
2018,08,20,09,10,16.50
2018,08,20,09,11,16.50
2018,08,20,09,12,16.60
2018,08,20,09,13,16.70
2018,08,20,09,14,16.70
2018,08,20,09,15,16.80
2018,08,20,09,16,16.80
2018,08,20,09,17,16.90
2018,08,20,09,18,17.00
2018,08,20,09,19,17.10
2018,08,20,09,20,17.10
2018,08,20,09,21,17.20
2018,08,20,09,22,17.30
2018,08,20,09,23,17.30
2018,08,20,09,24,17.40
2018,08,20,09,25,17.50
2018,08,20,09,26,17.60
2018,08,20,09,27,17.70
2018,08,20,09,28,17.80
2018,08,20,09,29,17.90
2018,08,20,09,30,18.00
2018,08,20,09,31,18.10
2018,08,20,09,32,18.10
2018,08,20,09,33,18.20
2018,08,20,09,34,18.30
2018,08,20,09,35,18.40
2018,08,20,09,36,18.50
2018,08,20,09,37,18.60
2018,08,20,09,38,18.60
2018,08,20,09,39,18.70
2018,08,20,09,40,18.80
2018,08,20,09,41,18.90
2018,08,20,09,42,19.00
2018,08,20,09,43,19.10
2018,08,20,09,44,19.10
2018,08,20,09,45,19.20
2018,08,20,09,46,19.30
2018,08,20,09,47,19.40
2018,08,20,09,48,19.50
2018,08,20,09,49,19.60
2018,08,20,09,50,19.70
2018,08,20,09,51,19.70
2018,08,20,09,52,19.70
2018,08,20,09,53,19.70
2018,08,20,09,54,19.70
2018,08,20,09,55,19.80
2018,08,20,09,56,19.80
2018,08,20,09,57,19.80
2018,08,20,09,58,19.90
2018,08,20,09,59,19.90
2018,08,20,10,00,20.00
2018,08,20,10,01,20.00
2018,08,20,10,02,20.10
2018,08,20,10,03,20.10
2018,08,20,10,04,20.10
2018,08,20,10,05,20.20
2018,08,20,10,06,20.20
2018,08,20,10,07,20.20
2018,08,20,10,08,20.30
2018,08,20,10,09,20.30
2018,08,20,10,10,20.30
2018,08,20,10,11,20.40
2018,08,20,10,12,20.50
2018,08,20,10,13,20.50
2018,08,20,10,14,20.60
2018,08,20,10,15,20.60
2018,08,20,10,16,20.70
2018,08,20,10,17,20.80
2018,08,20,10,18,20.80
2018,08,20,10,19,21.00
2018,08,20,10,20,21.00
2018,08,20,10,21,21.10
2018,08,20,10,22,21.30
2018,08,20,10,23,21.40
2018,08,20,10,24,21.50
2018,08,20,10,25,21.60
2018,08,20,10,26,21.60
2018,08,20,10,27,21.70
2018,08,20,10,28,21.80
2018,08,20,10,29,21.90
2018,08,20,10,30,22.00
2018,08,20,10,31,22.10
2018,08,20,10,32,22.30
2018,08,20,10,33,22.30
2018,08,20,10,34,22.50
2018,08,20,10,35,22.60
2018,08,20,10,36,22.70
2018,08,20,10,37,22.80
2018,08,20,10,38,23.00
2018,08,20,10,39,23.10
2018,08,20,10,40,23.30
2018,08,20,10,41,23.40
2018,08,20,10,42,23.60
2018,08,20,10,43,23.70
2018,08,20,10,44,23.80
2018,08,20,10,45,24.00
2018,08,20,10,46,24.20
2018,08,20,10,47,24.30
2018,08,20,10,48,24.40
2018,08,20,10,49,24.50
2018,08,20,10,50,24.70
2018,08,20,10,51,24.80
2018,08,20,10,52,24.90
2018,08,20,10,53,25.10
2018,08,20,10,54,25.20
2018,08,20,10,55,25.30
2018,08,20,10,56,25.40
2018,08,20,10,57,25.50
2018,08,20,10,58,25.60
2018,08,20,10,59,25.70
2018,08,20,11,00,25.80
2018,08,20,11,01,25.90
2018,08,20,11,02,25.90
2018,08,20,11,03,26.00
2018,08,20,11,04,26.00
2018,08,20,11,05,26.10
2018,08,20,11,06,26.10
2018,08,20,11,07,26.20
2018,08,20,11,08,26.20
2018,08,20,11,09,26.30
2018,08,20,11,10,26.30
2018,08,20,11,11,26.40
2018,08,20,11,12,26.40
2018,08,20,11,13,26.50
2018,08,20,11,14,26.50
2018,08,20,11,15,26.60
2018,08,20,11,16,26.60
2018,08,20,11,17,26.60
2018,08,20,11,18,26.70
2018,08,20,11,19,26.70
2018,08,20,11,20,26.80
2018,08,20,11,21,26.80
2018,08,20,11,22,26.90
2018,08,20,11,23,27.00
2018,08,20,11,24,27.00
2018,08,20,11,25,27.10
2018,08,20,11,26,27.10
2018,08,20,11,27,27.20
2018,08,20,11,28,27.30
2018,08,20,11,29,27.30
2018,08,20,11,30,27.40
2018,08,20,11,31,27.40
2018,08,20,11,32,27.50
2018,08,20,11,33,27.60
2018,08,20,11,34,27.60
2018,08,20,11,35,27.70
2018,08,20,11,36,27.70
2018,08,20,11,37,27.70
2018,08,20,11,38,27.80
2018,08,20,11,39,27.80
2018,08,20,11,40,27.80
2018,08,20,11,41,27.80
2018,08,20,11,42,27.80
2018,08,20,11,43,27.80
2018,08,20,11,44,27.90
2018,08,20,11,45,27.90
2018,08,20,11,46,28.00
2018,08,20,11,47,28.10
2018,08,20,11,48,28.10
2018,08,20,11,49,28.10
2018,08,20,11,50,28.10
2018,08,20,11,51,28.20
2018,08,20,11,52,28.20
2018,08,20,11,53,28.30
2018,08,20,11,54,28.30
2018,08,20,11,55,28.30
2018,08,20,11,56,28.40
2018,08,20,11,57,28.40
2018,08,20,11,58,28.40
2018,08,20,11,59,28.40
2018,08,20,12,00,28.30
2018,08,20,12,01,28.30
2018,08,20,12,02,28.30
2018,08,20,12,03,28.30
2018,08,20,12,04,28.30
2018,08,20,12,05,28.30
2018,08,20,12,06,28.30
2018,08,20,12,07,28.30
2018,08,20,12,08,28.20
2018,08,20,12,09,28.20
2018,08,20,12,10,28.20
2018,08,20,12,11,28.20
2018,08,20,12,12,28.20
2018,08,20,12,13,28.20
2018,08,20,12,14,28.20
2018,08,20,12,15,28.20
2018,08,20,12,16,28.20
2018,08,20,12,17,28.20
2018,08,20,12,18,28.20
2018,08,20,12,19,28.20
2018,08,20,12,20,28.20
2018,08,20,12,21,28.30
2018,08,20,12,22,28.30
2018,08,20,12,23,28.30
2018,08,20,12,24,28.30
2018,08,20,12,25,28.40
2018,08,20,12,26,28.40
2018,08,20,12,27,28.30
2018,08,20,12,28,28.30
2018,08,20,12,29,28.30
2018,08,20,12,30,28.20
2018,08,20,12,31,28.10
2018,08,20,12,32,28.10
2018,08,20,12,33,28.20
2018,08,20,12,34,28.20
2018,08,20,12,35,28.20
2018,08,20,12,36,28.20
2018,08,20,12,37,28.30
2018,08,20,12,38,28.30
2018,08,20,12,39,28.30
2018,08,20,12,40,28.40
2018,08,20,12,41,28.40
2018,08,20,12,42,28.40
2018,08,20,12,43,28.50
2018,08,20,12,44,28.50
2018,08,20,12,45,28.60
2018,08,20,12,46,28.60
2018,08,20,12,47,28.60
2018,08,20,12,48,28.60
2018,08,20,12,49,28.70
2018,08,20,12,50,28.80
2018,08,20,12,51,28.90
2018,08,20,12,52,28.90
2018,08,20,12,53,29.00
2018,08,20,12,54,29.10
2018,08,20,12,55,29.10
2018,08,20,12,56,29.10
2018,08,20,12,57,29.10
2018,08,20,12,58,29.20
2018,08,20,12,59,29.10
2018,08,20,13,00,29.10
2018,08,20,13,01,29.20
2018,08,20,13,02,29.20
2018,08,20,13,03,29.20
2018,08,20,13,04,29.20
2018,08,20,13,05,29.20
2018,08,20,13,06,29.20
2018,08,20,13,07,29.20
2018,08,20,13,08,29.20
2018,08,20,13,09,29.30
2018,08,20,13,10,29.30
2018,08,20,13,11,29.20
2018,08,20,13,12,29.20
2018,08,20,13,13,29.20
2018,08,20,13,14,29.20
2018,08,20,13,15,29.20
2018,08,20,13,16,29.20
2018,08,20,13,17,29.20
2018,08,20,13,18,29.20
2018,08,20,13,19,29.20
2018,08,20,13,20,29.20
2018,08,20,13,21,29.30
2018,08,20,13,22,29.20
2018,08,20,13,23,29.30
2018,08,20,13,24,29.30
2018,08,20,13,25,29.30
2018,08,20,13,26,29.30
2018,08,20,13,27,29.40
2018,08,20,13,28,29.40
2018,08,20,13,29,29.50
2018,08,20,13,30,29.40
2018,08,20,13,31,29.40
2018,08,20,13,32,29.40
2018,08,20,13,33,29.40
2018,08,20,13,34,29.30
2018,08,20,13,35,29.20
2018,08,20,13,36,29.20
2018,08,20,13,37,29.20
2018,08,20,13,38,29.30
2018,08,20,13,39,29.30
2018,08,20,13,40,29.40
2018,08,20,13,41,29.40
2018,08,20,13,42,29.40
2018,08,20,13,43,29.40
2018,08,20,13,44,29.40
2018,08,20,13,45,29.40
2018,08,20,13,46,29.40
2018,08,20,13,47,29.50
2018,08,20,13,48,29.50
2018,08,20,13,49,29.60
2018,08,20,13,50,29.60
2018,08,20,13,51,29.70
2018,08,20,13,52,29.80
2018,08,20,13,53,29.80
2018,08,20,13,54,29.90
2018,08,20,13,55,29.90
2018,08,20,13,56,29.90
2018,08,20,13,57,29.90
2018,08,20,13,58,29.80
2018,08,20,13,59,29.80
2018,08,20,14,00,29.80
2018,08,20,14,01,29.80
2018,08,20,14,02,29.90
2018,08,20,14,03,29.90
2018,08,20,14,04,29.90
2018,08,20,14,05,29.90
2018,08,20,14,06,30.00
2018,08,20,14,07,30.00
2018,08,20,14,08,30.10
2018,08,20,14,09,30.10
2018,08,20,14,10,30.10
2018,08,20,14,11,30.10
2018,08,20,14,12,30.10
2018,08,20,14,13,30.10
2018,08,20,14,14,30.10
2018,08,20,14,15,30.10
2018,08,20,14,16,30.20
2018,08,20,14,17,30.20
2018,08,20,14,18,30.20
2018,08,20,14,19,30.30
2018,08,20,14,20,30.30
2018,08,20,14,21,30.30
2018,08,20,14,22,30.40
2018,08,20,14,23,30.50
2018,08,20,14,24,30.60
2018,08,20,14,25,30.70
2018,08,20,14,26,30.70
2018,08,20,14,27,30.70
2018,08,20,14,28,30.70
2018,08,20,14,29,30.70
2018,08,20,14,30,30.60
2018,08,20,14,31,30.70
2018,08,20,14,32,30.60
2018,08,20,14,33,30.50
2018,08,20,14,34,30.50
2018,08,20,14,35,30.50
2018,08,20,14,36,30.60
2018,08,20,14,37,30.60
2018,08,20,14,38,30.70
2018,08,20,14,39,30.70
2018,08,20,14,40,30.70
2018,08,20,14,41,30.80
2018,08,20,14,42,30.80
2018,08,20,14,43,30.80
2018,08,20,14,44,30.80
2018,08,20,14,45,30.80
2018,08,20,14,46,30.80
2018,08,20,14,47,30.80
2018,08,20,14,48,30.80
2018,08,20,14,49,30.80
2018,08,20,14,50,30.80
2018,08,20,14,51,30.80
2018,08,20,14,52,30.80
2018,08,20,14,53,30.90
2018,08,20,14,54,30.90
2018,08,20,14,55,30.90
2018,08,20,14,56,30.90
2018,08,20,14,57,31.00
2018,08,20,14,58,31.10
2018,08,20,14,59,31.10
2018,08,20,15,00,31.20
2018,08,20,15,01,31.30
2018,08,20,15,02,31.40
2018,08,20,15,03,31.50
2018,08,20,15,04,31.60
2018,08,20,15,05,31.70
2018,08,20,15,06,31.70
2018,08,20,15,07,31.80
2018,08,20,15,08,31.80
2018,08,20,15,09,31.80
2018,08,20,15,10,31.80
2018,08,20,15,11,31.80
2018,08,20,15,12,31.80
2018,08,20,15,13,31.80
2018,08,20,15,14,31.80
2018,08,20,15,15,31.80
2018,08,20,15,16,31.80
2018,08,20,15,17,31.90
2018,08,20,15,18,31.90
2018,08,20,15,19,32.00
2018,08,20,15,20,32.00
2018,08,20,15,21,32.00
2018,08,20,15,22,32.00
2018,08,20,15,23,31.90
2018,08,20,15,24,31.90
2018,08,20,15,25,31.80
2018,08,20,15,26,31.80
2018,08,20,15,27,31.80
2018,08,20,15,28,31.70
2018,08,20,15,29,31.70
2018,08,20,15,30,31.70
2018,08,20,15,31,31.60
2018,08,20,15,32,31.60
2018,08,20,15,33,31.50
2018,08,20,15,34,31.50
2018,08,20,15,35,31.40
2018,08,20,15,36,31.50
2018,08,20,15,37,31.50
2018,08,20,15,38,31.60
2018,08,20,15,39,31.60
2018,08,20,15,40,31.70
2018,08,20,15,41,31.70
2018,08,20,15,42,31.80
2018,08,20,15,43,31.80
2018,08,20,15,44,31.80
2018,08,20,15,45,31.80
2018,08,20,15,46,31.80
2018,08,20,15,47,31.80
2018,08,20,15,48,31.80
2018,08,20,15,49,31.80
2018,08,20,15,50,31.80
2018,08,20,15,51,31.80
2018,08,20,15,52,31.80
2018,08,20,15,53,31.90
2018,08,20,15,54,31.90
2018,08,20,15,55,31.90
2018,08,20,15,56,31.90
2018,08,20,15,57,31.90
2018,08,20,15,58,31.90
2018,08,20,15,59,31.80
2018,08,20,16,00,31.80
2018,08,20,16,01,31.90
2018,08,20,16,02,31.90
2018,08,20,16,03,31.90
2018,08,20,16,04,32.00
2018,08,20,16,05,32.00
2018,08,20,16,06,31.90
2018,08,20,16,07,31.80
2018,08,20,16,08,31.80
2018,08,20,16,09,31.80
2018,08,20,16,10,31.80
2018,08,20,16,11,31.80
2018,08,20,16,12,31.80
2018,08,20,16,13,31.80
2018,08,20,16,14,31.80
2018,08,20,16,15,31.80
2018,08,20,16,16,31.80
2018,08,20,16,17,31.80
2018,08,20,16,18,31.80
2018,08,20,16,19,31.80
2018,08,20,16,20,31.80
2018,08,20,16,21,31.80
2018,08,20,16,22,31.80
2018,08,20,16,23,31.80
2018,08,20,16,24,31.80
2018,08,20,16,25,31.80
2018,08,20,16,26,31.80
2018,08,20,16,27,31.90
2018,08,20,16,28,31.90
2018,08,20,16,29,31.90
2018,08,20,16,30,31.90
2018,08,20,16,31,31.90
2018,08,20,16,32,31.90
2018,08,20,16,33,31.90
2018,08,20,16,34,31.90
2018,08,20,16,35,31.90
2018,08,20,16,36,31.90
2018,08,20,16,37,32.00
2018,08,20,16,38,32.00
2018,08,20,16,39,32.10
2018,08,20,16,40,32.10
2018,08,20,16,41,32.10
2018,08,20,16,42,32.10
2018,08,20,16,43,32.10
2018,08,20,16,44,32.10
2018,08,20,16,45,32.20
2018,08,20,16,46,32.20
2018,08,20,16,47,32.10
2018,08,20,16,48,32.10
2018,08,20,16,49,32.10
2018,08,20,16,50,32.00
2018,08,20,16,51,32.00
2018,08,20,16,52,31.90
2018,08,20,16,53,31.90
2018,08,20,16,54,31.90
2018,08,20,16,55,31.90
2018,08,20,16,56,31.90
2018,08,20,16,57,31.90
2018,08,20,16,58,31.80
2018,08,20,16,59,31.80
2018,08,20,17,00,31.80
2018,08,20,17,01,31.80
2018,08,20,17,02,31.80
2018,08,20,17,03,31.80
2018,08,20,17,04,31.90
2018,08,20,17,05,31.90
2018,08,20,17,06,31.80
2018,08,20,17,07,31.80
2018,08,20,17,08,31.80
2018,08,20,17,09,31.80
2018,08,20,17,10,31.70
2018,08,20,17,11,31.70
2018,08,20,17,12,31.70
2018,08,20,17,13,31.70
2018,08,20,17,14,31.70
2018,08,20,17,15,31.60
2018,08,20,17,16,31.60
2018,08,20,17,17,31.60
2018,08,20,17,18,31.60
2018,08,20,17,19,31.60